Terminal Aerodrome Forecast
Issued by NWS

Home | Current Version | Previous Version | Text Only | Print | Product List | Glossary On
Versions: 1 2 3 4 5 6 7 8 9 10 11 12 13 14 15 16 17 18 19
000
FTUS44 KMAF 200520
TAFHOB
TAF
KHOB 200520Z 2006/2106 23006KT P6SM FEW100
     FM202000 22012G17KT P6SM FEW100
     FM210100 19005KT P6SM SKC=

USA.gov is the U.S. government's official web portal to all federal, state and local government web resources and services.